Weather reports worldwide

Advertisment
Odiham, United Kingdom (3761): temperature & dewpoint: 17.04.2019 17:00:00 - 23.04.2019 17:00:00 (BST)Odiham, United Kingdom (3761): temperature -20cm & temperature -100cm: 17.04.2019 17:00:00 - 23.04.2019 17:00:00 (BST)Odiham, United Kingdom (3761): wind speed: 17.04.2019 17:00:00 - 23.04.2019 17:00:00 (BST)Odiham, United Kingdom (3761): wind direction: 17.04.2019 17:00:00 - 23.04.2019 17:00:00 (BST)Odiham, United Kingdom (3761): reduced air pressure: 17.04.2019 17:00:00 - 23.04.2019 17:00:00 (BST)Odiham, United Kingdom (3761): visibility: 17.04.2019 17:00:00 - 23.04.2019 17:00:00 (BST)Odiham, United Kingdom (3761): sunshine duration: 17.04.2019 17:00:00 - 23.04.2019 17:00:00 (BST)Odiham, United Kingdom (3761): precipitation: 17.04.2019 17:00:00 - 23.04.2019 17:00:00 (BST)
Date & Time tt [°C] td [°C] tt -20cm [°C] tt -100cm [°C] ff [km/h] ff [kn] dd ppp [hPa] vv [km] sd [min] rr [mm]
23.04.2019 17:00:00 19,3 7,6 - - 16 9 ENE 994,9 10 0 0,0
23.04.2019 16:00:00 20,6 8,3 - - 15 8 NE 994,9 10 0 0,0
23.04.2019 15:00:00 21,1 8,9 - - 15 8 NE 995,3 10 0 0,0
23.04.2019 14:00:00 20,5 9,3 - - 8 4 N 995,8 10 0 0,0
23.04.2019 13:00:00 19,2 9,4 - - 8 4 NE 996,3 10 0 0,0
23.04.2019 12:00:00 18,0 9,7 - - 8 4 NNE 996,7 10 6 0,0
23.04.2019 11:00:00 16,8 9,4 - - 5 3 NNE 997,1 9 18 0,0
23.04.2019 10:00:00 14,7 8,9 11,0 9,7 5 3 NNE 997,4 8 0 0,0
23.04.2019 09:00:00 13,4 8,6 - - 5 3 NE 997,6 8 24 0,0
23.04.2019 08:00:00 10,6 7,9 - - 2 1 N 997,9 8 0 0,0
23.04.2019 07:00:00 8,7 6,6 - - 4 2 NNE 997,9 8 0 0,0
23.04.2019 06:00:00 8,7 6,2 - - 2 1 NNW 998,0 8 0 0,0
23.04.2019 05:00:00 9,7 7,0 - - 2 1 NNW 998,4 14 0 0,0
23.04.2019 04:00:00 9,7 6,6 - - 4 2 N 999,0 14 0 0,0
23.04.2019 03:00:00 10,1 6,4 - - 2 1 N 999,7 10 0 0,0
23.04.2019 02:00:00 10,5 6,7 - - 2 1 ENE 1000,3 10 0 0,0
23.04.2019 01:00:00 11,5 6,2 - - 0 0 N 1000,8 10 - 0,0
23.04.2019 00:00:00 14,2 7,1 - - 2 1 NE 1001,1 10 0 0,0
22.04.2019 23:00:00 13,9 7,1 - - 4 2 E 1001,6 10 0 0,0
22.04.2019 22:00:00 14,5 6,9 - - 9 5 E 1002,0 10 0 0,0
22.04.2019 21:00:00 15,9 6,7 - - 5 3 E 1002,0 10 0 0,0
22.04.2019 20:00:00 16,4 6,8 - - 4 2 SSE 1001,9 10 0 0,0
22.04.2019 19:00:00 18,3 6,5 - - 15 8 SSE 1001,9 15 0 0,0
22.04.2019 18:00:00 19,8 6,9 - - 13 7 SSE 1001,9 10 6 0,0
22.04.2019 17:00:00 22,2 6,3 - - 16 9 SE 1001,8 18 60 0,0
22.04.2019 16:00:00 22,9 4,6 - - 18 10 SSE 1002,1 10 60 0,0
22.04.2019 15:00:00 22,7 6,2 - - 21 11 SSE 1002,7 10 60 0,0
22.04.2019 14:00:00 23,2 5,1 - - 18 10 SE 1003,3 10 42 0,0
22.04.2019 13:00:00 21,1 8,7 - - 13 7 E 1004,2 9 24 0,0
22.04.2019 12:00:00 18,5 8,6 - - 13 7 E 1005,3 8 12 0,0
22.04.2019 11:00:00 16,7 9,1 - - 8 4 ENE 1005,9 6 18 0,0
22.04.2019 10:00:00 12,6 6,8 10,7 9,5 8 4 ENE 1007,0 5 18 0,0
22.04.2019 09:00:00 10,3 5,2 - - 5 3 NNE 1007,6 5 42 0,0
22.04.2019 08:00:00 7,9 3,9 - - 2 1 NW 1008,4 7 0 0,0
22.04.2019 07:00:00 6,2 2,2 - - 4 2 NNE 1008,9 9 0 0,0
22.04.2019 06:00:00 6,3 2,0 - - 4 2 NE 1009,3 9 0 0,0
22.04.2019 05:00:00 8,8 2,1 - - 8 4 NE 1009,8 10 0 0,0
22.04.2019 04:00:00 7,4 1,8 - - 9 5 E 1010,7 12 0 0,0
22.04.2019 03:00:00 7,2 2,1 - - 8 4 E 1011,6 10 0 0,0
22.04.2019 02:00:00 10,6 4,2 - - 5 3 E 1012,2 11 0 0,0
22.04.2019 01:00:00 11,1 4,3 - - 8 4 E 1013,0 10 - 0,0
22.04.2019 00:00:00 12,5 4,8 - - 9 5 E 1013,7 12 0 0,0
21.04.2019 23:00:00 13,1 4,5 - - 8 4 E 1014,1 13 0 0,0
21.04.2019 22:00:00 11,9 5,1 - - 9 5 E 1014,7 10 0 0,0
21.04.2019 21:00:00 12,4 5,0 - - 8 4 S 1015,1 10 0 0,0
21.04.2019 20:00:00 18,8 7,1 - - 9 5 SSW 1014,9 10 36 0,0
21.04.2019 19:00:00 20,4 7,8 - - 13 7 S 1014,7 13 60 0,0
21.04.2019 18:00:00 21,9 7,5 - - 15 8 SSW 1015,2 10 60 0,0
21.04.2019 17:00:00 23,2 5,3 - - 5 3 N 1015,8 10 60 0,0
21.04.2019 16:00:00 23,0 5,1 - - 5 3 E 1016,6 14 60 0,0
21.04.2019 15:00:00 23,0 5,1 - - 5 3 E 1017,6 14 60 0,0
21.04.2019 14:00:00 22,2 4,7 - - 9 5 E 1018,5 14 60 0,0
21.04.2019 13:00:00 21,3 4,2 - - 5 3 N 1019,3 15 60 0,0
21.04.2019 12:00:00 19,8 6,7 - - 8 4 N 1020,1 10 60 0,0
21.04.2019 11:00:00 17,5 7,1 - - 8 4 NNE 1021,1 10 60 0,0
21.04.2019 10:00:00 14,6 7,4 10,4 9,2 5 3 N 1022,1 10 60 0,0
21.04.2019 09:00:00 12,4 6,1 - - 5 3 NNE 1022,8 10 60 0,0
21.04.2019 08:00:00 9,9 5,4 - - 4 2 NW 1023,3 8 60 0,0
21.04.2019 07:00:00 6,5 3,1 - - 5 3 W 1023,8 7 24 0,0
21.04.2019 06:00:00 5,7 2,8 - - 5 3 W 1024,0 7 0 0,0
21.04.2019 05:00:00 7,2 3,4 - - 5 3 WSW 1024,4 9 0 0,0
21.04.2019 04:00:00 7,1 3,4 - - 5 3 WSW 1025,0 10 0 0,0
21.04.2019 03:00:00 7,5 3,5 - - 4 2 W 1025,7 10 0 0,0
21.04.2019 02:00:00 7,8 3,7 - - 2 1 NNE 1026,3 10 0 0,0
21.04.2019 01:00:00 9,1 3,6 - - 4 2 NE 1027,0 10 - 0,0
21.04.2019 00:00:00 13,7 4,3 - - 9 5 NNE 1027,2 10 0 0,0
20.04.2019 23:00:00 11,7 2,8 - - 8 4 E 1027,6 15 0 0,0
20.04.2019 22:00:00 12,6 4,0 - - 9 5 E 1027,7 10 0 0,0
20.04.2019 21:00:00 15,2 5,5 - - 8 4 E 1027,4 10 0 0,0
20.04.2019 20:00:00 17,8 6,3 - - 8 4 E 1026,9 10 36 0,0
20.04.2019 19:00:00 21,0 7,0 - - 8 4 E 1026,7 10 60 0,0
20.04.2019 18:00:00 22,8 4,9 - - 8 4 ENE 1026,9 15 60 0,0
20.04.2019 17:00:00 23,1 4,6 - - 8 4 NE 1027,3 16 60 0,0
20.04.2019 16:00:00 23,1 5,9 - - 11 6 NE 1027,8 10 60 0,0
20.04.2019 15:00:00 22,9 5,5 - - 11 6 NNE 1028,6 16 60 0,0
20.04.2019 14:00:00 22,6 7,2 - - 13 7 NE 1029,1 14 60 0,0
20.04.2019 13:00:00 21,7 6,5 - - 16 9 ENE 1029,7 14 60 0,0
20.04.2019 12:00:00 20,1 8,1 - - 13 7 NNE 1030,2 10 60 0,0
20.04.2019 11:00:00 18,7 8,6 - - 13 7 N 1030,5 13 60 0,0
20.04.2019 10:00:00 14,6 8,6 10,0 9,0 9 5 N 1030,9 10 60 0,0
20.04.2019 09:00:00 12,1 7,1 - - 8 4 N 1031,2 9 60 0,0
20.04.2019 08:00:00 8,7 6,2 - - 5 3 W 1031,5 6 60 0,0
20.04.2019 07:00:00 7,3 5,7 - - 5 3 WSW 1031,3 5 18 0,0
20.04.2019 06:00:00 7,6 5,8 - - 8 4 W 1031,1 6 0 0,0
20.04.2019 05:00:00 7,7 5,0 - - 9 5 W 1031,1 10 0 0,0
20.04.2019 04:00:00 8,3 5,3 - - 9 5 W 1031,4 12 0 0,0
20.04.2019 03:00:00 8,0 4,3 - - 8 4 W 1031,1 10 0 0,0
20.04.2019 02:00:00 8,7 3,9 - - 4 2 W 1030,9 10 0 0,0
20.04.2019 01:00:00 9,7 4,0 - - 4 2 W 1031,0 16 - 0,0
20.04.2019 00:00:00 9,9 2,9 - - 4 2 NW 1031,1 10 0 0,0
19.04.2019 23:00:00 12,1 3,3 - - 5 3 NE 1030,7 22 0 0,0
19.04.2019 22:00:00 13,7 3,0 - - 9 5 E 1030,4 10 0 0,0
19.04.2019 21:00:00 16,3 3,6 - - 11 6 ENE 1030,0 10 0 0,0
19.04.2019 20:00:00 18,0 4,4 - - 13 7 ENE 1029,3 10 24 0,0
19.04.2019 19:00:00 20,6 4,8 - - 16 9 E 1028,4 10 60 0,0
19.04.2019 18:00:00 22,0 5,1 - - 15 8 ENE 1027,7 24 60 0,0
19.04.2019 17:00:00 22,2 4,6 - - 13 7 NE 1027,5 10 60 0,0
19.04.2019 16:00:00 22,6 5,4 - - 15 8 ENE 1027,7 10 60 0,0
19.04.2019 15:00:00 21,8 5,8 - - 13 7 ENE 1027,9 10 60 0,0
19.04.2019 14:00:00 21,9 8,1 - - 13 7 NNE 1028,1 10 60 0,0
19.04.2019 13:00:00 20,6 7,5 - - 16 9 NNE 1027,9 10 60 0,0
19.04.2019 12:00:00 19,4 7,8 - - 13 7 NNE 1027,9 10 60 0,0
19.04.2019 11:00:00 16,8 7,6 - - 9 5 N 1028,0 10 60 0,0
19.04.2019 10:00:00 14,1 7,9 9,7 9,0 9 5 N 1028,3 9 60 0,0
19.04.2019 09:00:00 11,6 7,2 - - 8 4 NNE 1028,0 8 60 0,0
19.04.2019 08:00:00 9,0 6,0 - - 5 3 N 1027,8 7 60 0,0
19.04.2019 07:00:00 7,2 4,9 - - 5 3 NNW 1027,5 7 6 0,0
19.04.2019 06:00:00 7,0 5,1 - - 5 3 NW 1026,9 8 0 0,0
19.04.2019 05:00:00 6,6 3,8 - - 4 2 WNW 1026,8 7 0 0,0
19.04.2019 04:00:00 6,5 3,5 - - 4 2 WNW 1026,5 8 0 0,0
19.04.2019 03:00:00 8,1 5,0 - - 8 4 WNW 1026,1 8 0 0,0
19.04.2019 02:00:00 7,5 2,9 - - 2 1 N 1026,2 10 0 0,0
19.04.2019 01:00:00 10,7 5,1 - - 8 4 NNE 1025,9 10 - 0,0
19.04.2019 00:00:00 11,3 5,0 - - 9 5 ENE 1025,8 12 0 0,0
18.04.2019 23:00:00 13,1 5,4 - - 15 8 E 1025,3 13 0 0,0
18.04.2019 22:00:00 13,1 5,3 - - 11 6 ENE 1025,0 10 0 0,0
18.04.2019 21:00:00 13,7 4,9 - - 11 6 ENE 1024,6 10 0 0,0
18.04.2019 20:00:00 15,1 5,6 - - 13 7 NE 1023,9 13 0 0,0
18.04.2019 19:00:00 17,5 6,0 - - 18 10 ENE 1023,0 10 0 0,0
18.04.2019 18:00:00 18,8 6,9 - - 16 9 NE 1022,2 10 0 0,0
18.04.2019 17:00:00 19,8 7,9 - - 21 11 ENE 1021,9 10 12 0,0
18.04.2019 16:00:00 20,4 9,9 - - 18 10 ENE 1021,6 10 36 0,0
18.04.2019 15:00:00 20,1 9,4 - - 18 10 ENE 1021,6 10 54 0,0
18.04.2019 14:00:00 20,4 10,4 - - 18 10 ENE 1021,8 10 54 0,0
18.04.2019 13:00:00 18,6 9,6 - - 15 8 ENE 1022,2 10 60 0,0
18.04.2019 12:00:00 16,5 9,3 - - 18 10 ENE 1022,4 9 60 0,0
18.04.2019 11:00:00 14,2 9,2 - - 15 8 NE 1022,7 6 24 0,0
18.04.2019 10:00:00 12,4 9,3 9,2 8,7 15 8 NE 1022,8 5 0 0,0
18.04.2019 09:00:00 10,8 8,7 - - 11 6 ENE 1022,6 3,2 0 0,0
18.04.2019 08:00:00 9,3 8,7 - - 9 5 NE 1022,3 2,0 0 0,0
18.04.2019 07:00:00 8,4 8,1 - - 16 9 NE 1022,1 0,7 0 0,0
18.04.2019 06:00:00 8,1 7,8 - - 8 4 NE 1022,0 1,2 0 0,0
18.04.2019 05:00:00 8,1 7,7 - - 11 6 NE 1021,7 1,5 0 0,0
18.04.2019 04:00:00 7,9 7,3 - - 11 6 NE 1021,9 2,0 0 0,0
18.04.2019 03:00:00 8,2 7,3 - - 9 5 NE 1022,0 2,5 0 0,0
18.04.2019 02:00:00 8,6 7,4 - - 9 5 ENE 1021,9 2,4 0 0,0
18.04.2019 01:00:00 9,2 6,8 - - 13 7 ENE 1021,6 5 - 0,0
18.04.2019 00:00:00 9,8 7,0 - - 11 6 E 1021,4 8 0 0,0
17.04.2019 23:00:00 9,2 6,2 - - 9 5 ENE 1021,1 9 0 0,0
17.04.2019 22:00:00 9,1 6,5 - - 8 4 ESE 1020,8 10 0 0,0
17.04.2019 21:00:00 9,2 6,0 - - 11 6 ESE 1020,3 8 0 0,0
17.04.2019 20:00:00 12,1 8,0 - - 16 9 ESE 1019,6 8 0 0,0
17.04.2019 19:00:00 15,1 9,3 - - 15 8 SE 1018,7 8 12 0,0
17.04.2019 18:00:00 17,1 7,6 - - 11 6 E 1018,2 9 48 0,0
17.04.2019 17:00:00 17,4 7,7 - - 13 7 E 1018,3 9 18 0,0

tt = temperature
td = dewpoint
tt -20cm = temperature -20cm
tt -100cm = temperature -100cm
ff = wind speed
dd = wind direction
ppp = reduced air pressure
vv = visibility
sd = sunshine duration
rr = precipitation

Next stations